STARLINK-35544, 65922

Orbit data source: Space-Track

STARLINK-35544, 65922 is a payload satellite owned by SpaceX/Seattle (US) in LEO that was launched on Wed, 08 Oct 2025 UTC via an FALCON 9 launch vehicle from the Air Force Western Test Range (AFWTR). Payload-class satellites include a variety of spacecraft equipped with specific instruments for various scientific and technological missions. These include communications satellites like Starlink; space stations such as the ISS; scientific satellites like the Hubble; Earth observation satellites from companies like Planet Labs, Umbra, and HawkEye 360; GPS; miniature CubeSats for education and research; and military/defense satellites.

Loading next visibility...
Identifier
65922, 2025-225N
Orbit
LEO
Country
Flag of USUS
Related business
Manufacturer
SpaceX/Seattle
Mission
Operational Commercial Communications
Bus & Motor
STARLINK V2MO, Unknown motor
Mass
575 kg wet, ~530 kg dry
Launch date (UTC)
2025-10-08 (8 months ago)
Launch vehicle
FALCON 9
Launch site
Air Force Western Test Range (AFWTR)
Object type
Payload
Rocket body
Debris
Shape & HBR
Box + 2 Pan, 17.7 m
Radar Cross Section
36.964 m², Large (>1 m²)

Expand to show TLE details & history
Last TLE update: 15 hours ago

TLE from 15 hours ago
0 STARLINK-35544
1 65922U 25225N   26151.20879545  .00023639  00000-0  70866-3 0  9998
2 65922  53.1578 142.2838 0001500  94.2034 265.9140 15.34395170 37040
Epoch: 2026-05-31T05:00Z
TLE epoch observation values (Epoch: 2026-05-31T05:00:39.926Z)
Latitude
-0.00004°
Longitude
178.40365°
Altitude
463.692 km
Speed
7.636 km/s
True Right ascension
09h 29m 08s
True Declination
0° 00' 00"
Sunlit
Object was in daylight at epoch
Visualization orbit readout
Latitude
Unknown
Longitude
Unknown
Altitude
Unknown
Speed
Unknown
Apparent Right ascension
Unknown
Apparent Declination
Unknown
Sunlit
N/A
Visualization observer readout
Local Sidereal Time
06:01:42
Azimuth
Unknown
Elevation
Unknown
Doppler factor
Unknown
Orbital elements
Apogee altitude
464.001 km
Perigee altitude
461.949 km
Semi-major axis
6,841.112 km
Eccentricity
0.00015
Inclination
53.1578°
RAAN
142.2838°
Arg. of periapsis
94.2034°
True anomaly
265.89686°
Mean anomaly
265.914°
Eccentric anomaly
265.90543°
Mean motion
3.83578 °/min
Orbital period
93.85 mins
BSTAR
0.00070866
Loading maneuver chart data...
Computing Atmospheric mass density...
Loading historical data...
Loading historical data...
Loading historical data...
Loading historical data...
Loading historical data...
Loading historical data...
Loading historical data...

Documentation

Showing up to 5 results
|